This is the latest recevied weather packets stored in our database for station/object KC9MWQ-13. If no packets are shown the sender has not sent any weather packets the latest 1 day(s).
| Time | Temp. | Humidity | Pressure | Rain* | Wind** | Luminosity | Snow |
|---|---|---|---|---|---|---|---|
| 1778048737 | 6.67° C | 99% | 1010.2 hPa | 0 mm | - | 0 W/m² | - |
| 1778048434 | 6.67° C | 99% | 1010.4 hPa | 0 mm | - | 0 W/m² | - |
| 1778047526 | 7.22° C | 99% | 1010.9 hPa | 1.27 mm | - | 0 W/m² | - |
| 1778046920 | 7.22° C | 99% | 1011.4 hPa | 1.78 mm | - | 0 W/m² | - |
| 1778046009 | 7.22° C | 99% | 1011.6 hPa | 0 mm | - | 0 W/m² | - |
| 1778045104 | 7.22° C | 99% | 1011.5 hPa | 0 mm | - | 0 W/m² | - |
| 1778044801 | 7.22° C | 99% | 1011.1 hPa | 0 mm | - | 0 W/m² | - |
| 1778043893 | 7.22° C | 99% | 1011.3 hPa | 1.78 mm | - | 0 W/m² | - |
| 1778043286 | 7.22° C | 99% | 1011.2 hPa | 0 mm | - | 0 W/m² | - |
| 1778042681 | 7.22° C | 99% | 1011.1 hPa | 1.27 mm | - | 0 W/m² | - |
| 1778042377 | 7.22° C | 99% | 1011.2 hPa | 0 mm | - | 0 W/m² | - |
| 1778041472 | 7.78° C | 99% | 1010.8 hPa | 1.27 mm | - | 0 W/m² | - |
| 1778041169 | 7.78° C | 99% | 1010.8 hPa | 0 mm | - | 0 W/m² | - |
| 1778040867 | 8.33° C | 99% | 1010.7 hPa | 0 mm | - | 0 W/m² | - |
| 1778040564 | 8.33° C | 99% | 1010.4 hPa | 1.78 mm | - | 0 W/m² | - |
| 1778040261 | 8.33° C | 99% | 1010.3 hPa | 0 mm | - | 0 W/m² | - |
| 1778039957 | 8.33° C | 99% | 1010.3 hPa | 1.27 mm | - | 0 W/m² | - |
| 1778039655 | 8.33° C | 99% | 1010.4 hPa | 1.27 mm | - | 0 W/m² | - |
| 1778039049 | 8.33° C | 99% | 1011.2 hPa | 1.27 mm | - | 0 W/m² | - |
| 1778038443 | 8.33° C | 99% | 1010.9 hPa | 3.05 mm | - | 0 W/m² | - |
| 1778037836 | 8.33° C | 99% | 1010.4 hPa | 1.78 mm | - | 0 W/m² | - |
| 1778037533 | 8.33° C | 99% | 1010.3 hPa | 1.27 mm | - | 0 W/m² | - |
| 1778036928 | 8.33° C | 99% | 1010.7 hPa | 1.78 mm | - | 0 W/m² | - |
| 1778036626 | 8.33° C | 99% | 1010.4 hPa | 1.78 mm | - | 0 W/m² | - |
| 1778036019 | 8.33° C | 99% | 1010.3 hPa | 4.32 mm | - | 0 W/m² | - |
* Rain latest hour (hover to see other rain measurements)
** Current wind speed in m/s (hover to see current wind gust speed)